| time (UTC) | temp F | wind direction | speed MPH | gust MPH | rain 1hr in | rain 24hr in | rain mn in | humidity % | barometer mb |
| 20260507181632 | 40 | 261 | 0.0 | 3.0 | 0.00 | 1.65 | 0.28 | 90 | 1014.9 |
| 20260507181136 | 40 | 288 | 1.0 | 3.0 | 0.00 | 1.65 | 0.28 | 90 | 1014.9 |
| 20260507180625 | 40 | 309 | 1.0 | 3.0 | 0.00 | 2.05 | 0.28 | 90 | 1014.7 |
| 20260507180129 | 40 | 309 | 2.0 | 3.0 | 0.00 | 2.05 | 0.28 | 91 | 1014.7 |
| 20260507175634 | 40 | 278 | 2.0 | 3.0 | 0.00 | 2.05 | 0.28 | 90 | 1014.6 |
| 20260507175137 | 40 | 272 | 2.0 | 2.0 | 0.00 | 2.05 | 0.28 | 92 | 1014.7 |
| 20260507174641 | 40 | 277 | 0.0 | 4.0 | 0.04 | 2.05 | 0.28 | 93 | 1014.6 |
| 20260507174125 | 40 | 277 | 2.0 | 4.0 | 0.08 | 2.05 | 0.28 | 91 | 1014.6 |
| 20260507173629 | 40 | 29 | 0.0 | 2.0 | 0.12 | 2.05 | 0.28 | 94 | 1014.5 |
| 20260507173132 | 39 | 29 | 0.0 | 3.0 | 0.16 | 2.05 | 0.28 | 93 | 1014.6 |
| 20260507172636 | 39 | 29 | 2.0 | 3.0 | 0.20 | 2.05 | 0.28 | 95 | 1014.5 |
| 20260507172140 | 39 | 30 | 1.0 | 3.0 | 0.24 | 2.05 | 0.28 | 95 | 1014.5 |
| 20260507171625 | 39 | 340 | 1.0 | 2.0 | 0.24 | 2.05 | 0.28 | 96 | 1014.5 |
| 20260507171133 | 39 | 340 | 0.0 | 3.0 | 0.24 | 2.05 | 0.28 | 96 | 1014.5 |
| 20260507170637 | 38 | 340 | 1.0 | 5.0 | 0.24 | 2.24 | 0.28 | 96 | 1014.5 |
| 20260507170141 | 38 | 49 | 1.0 | 6.0 | 0.24 | 2.24 | 0.28 | 96 | 1014.5 |
| 20260507165625 | 38 | 49 | 3.0 | 5.0 | 0.24 | 2.24 | 0.28 | 96 | 1014.4 |
| 20260507165137 | 38 | 88 | 1.0 | 6.0 | 0.20 | 2.20 | 0.28 | 96 | 1014.4 |
| 20260507164623 | 38 | 76 | 5.0 | 6.0 | 0.16 | 2.17 | 0.26 | 96 | 1014.4 |
| 20260507164128 | 38 | 104 | 2.0 | 6.0 | 0.16 | 2.17 | 0.26 | 96 | 1014.4 |
| 20260507163632 | 38 | 84 | 4.0 | 9.0 | 0.12 | 2.13 | 0.25 | 95 | 1014.3 |
| 20260507163135 | 39 | 124 | 4.0 | 9.0 | 0.08 | 2.09 | 0.24 | 95 | 1014.3 |
| 20260507162638 | 39 | 170 | 7.0 | 10.0 | 0.04 | 2.05 | 0.23 | 96 | 1014.2 |
| 20260507162123 | 40 | 191 | 5.0 | 7.0 | 0.00 | 2.01 | 0.22 | 96 | 1014.2 |
| 20260507161625 | 40 | 190 | 3.0 | 5.0 | 0.00 | 2.01 | 0.22 | 95 | 1014.3 |
| 20260507161133 | 40 | 233 | 4.0 | 6.0 | 0.00 | 2.01 | 0.22 | 95 | 1014.3 |
| 20260507160636 | 40 | 230 | 3.0 | 6.0 | 0.00 | 2.20 | 0.22 | 95 | 1014.3 |
| 20260507160139 | 41 | 131 | 1.0 | 6.0 | 0.00 | 2.20 | 0.22 | 95 | 1014.3 |
| 20260507155623 | 41 | 148 | 2.0 | 6.0 | 0.00 | 2.20 | 0.22 | 95 | 1014.3 |
| 20260507155127 | 41 | 151 | 2.0 | 6.0 | 0.00 | 2.20 | 0.22 | 95 | 1014.2 |
| 20260507154631 | 41 | 108 | 3.0 | 6.0 | 0.00 | 2.20 | 0.22 | 95 | 1014.2 |
| 20260507154134 | 41 | 145 | 3.0 | 6.0 | 0.00 | 2.20 | 0.22 | 95 | 1014.2 |
| 20260507153638 | 41 | 137 | 1.0 | 5.0 | 0.00 | 2.20 | 0.22 | 95 | 1014.2 |
| 20260507153141 | 40 | 223 | 1.0 | 6.0 | 0.00 | 2.20 | 0.22 | 94 | 1014.2 |
| 20260507152624 | 41 | 213 | 3.0 | 6.0 | 0.00 | 2.20 | 0.22 | 93 | 1014.2 |
| 20260507152129 | 41 | 171 | 2.0 | 5.0 | 0.00 | 2.20 | 0.22 | 92 | 1014.2 |
| 20260507151637 | 41 | 164 | 2.0 | 5.0 | 0.00 | 2.20 | 0.22 | 92 | 1014.2 |
| 20260507151141 | 42 | 163 | 2.0 | 4.0 | 0.00 | 2.20 | 0.22 | 92 | 1014.1 |
| 20260507150624 | 42 | 149 | 1.0 | 4.0 | 0.00 | 2.20 | 0.22 | 93 | 1014.1 |
| 20260507150129 | 42 | 171 | 1.0 | 4.0 | 0.00 | 2.20 | 0.22 | 94 | 1014.1 |
| 20260507145634 | 42 | 123 | 3.0 | 8.0 | 0.04 | 2.20 | 0.22 | 94 | 1014.1 |
| 20260507145138 | 42 | 167 | 5.0 | 8.0 | 0.04 | 2.20 | 0.22 | 93 | 1014.1 |
| 20260507144623 | 42 | 184 | 3.0 | 6.0 | 0.04 | 2.20 | 0.22 | 93 | 1014.0 |
| 20260507144128 | 42 | 196 | 3.0 | 7.0 | 0.04 | 2.20 | 0.22 | 91 | 1014.0 |
| 20260507143632 | 43 | 210 | 4.0 | 7.0 | 0.04 | 2.20 | 0.22 | 86 | 1014.1 |
| 20260507143136 | 43 | 218 | 3.0 | 5.0 | 0.08 | 2.20 | 0.22 | 87 | 1014.1 |
| 20260507142624 | 43 | 244 | 1.0 | 6.0 | 0.08 | 2.20 | 0.22 | 90 | 1014.0 |
| 20260507142129 | 43 | 132 | 2.0 | 6.0 | 0.08 | 2.20 | 0.22 | 93 | 1014.0 |
| 20260507141633 | 42 | 109 | 2.0 | 4.0 | 0.08 | 2.20 | 0.22 | 96 | 1014.0 |
| 20260507141138 | 41 | 238 | 1.0 | 6.0 | 0.08 | 2.20 | 0.22 | 94 | 1014.1 |
| 20260507140623 | 41 | 252 | 2.0 | 6.0 | 0.12 | 2.24 | 0.22 | 94 | 1014.2 |
| 20260507140129 | 41 | 167 | 4.0 | 6.0 | 0.08 | 2.20 | 0.21 | 95 | 1014.2 |
| 20260507135633 | 40 | 215 | 1.0 | 4.0 | 0.08 | 2.20 | 0.21 | 93 | 1014.2 |
| 20260507135137 | 40 | 196 | 1.0 | 8.0 | 0.12 | 2.20 | 0.21 | 94 | 1014.2 |
| 20260507134642 | 40 | 180 | 3.0 | 8.0 | 0.12 | 2.20 | 0.21 | 93 | 1014.2 |
| 20260507134127 | 41 | 196 | 5.0 | 8.0 | 0.12 | 2.20 | 0.21 | 93 | 1014.2 |
| 20260507133631 | 41 | 109 | 4.0 | 8.0 | 0.12 | 2.20 | 0.21 | 91 | 1014.2 |
| 20260507133139 | 41 | 180 | 2.0 | 5.0 | 0.08 | 2.17 | 0.20 | 92 | 1014.2 |
| 20260507132623 | 41 | 137 | 2.0 | 4.0 | 0.12 | 2.17 | 0.20 | 92 | 1014.2 |
| 20260507132127 | 40 | 261 | 1.0 | 4.0 | 0.12 | 2.17 | 0.20 | 88 | 1014.2 |
| 20260507131631 | 40 | 261 | 1.0 | 6.0 | 0.12 | 2.17 | 0.20 | 90 | 1014.2 |
| 20260507131134 | 40 | 233 | 3.0 | 6.0 | 0.12 | 2.17 | 0.20 | 90 | 1014.2 |
| 20260507130638 | 40 | 257 | 2.0 | 3.0 | 0.08 | 2.20 | 0.19 | 88 | 1014.2 |
| 20260507130122 | 39 | 351 | 3.0 | 6.0 | 0.12 | 2.20 | 0.19 | 88 | 1014.2 |
| 20260507125622 | 39 | 329 | 4.0 | 6.0 | 0.12 | 2.20 | 0.19 | 87 | 1014.3 |
| 20260507125129 | 39 | 41 | 4.0 | 7.0 | 0.08 | 2.17 | 0.18 | 88 | 1014.3 |
| 20260507124633 | 39 | 117 | 3.0 | 7.0 | 0.12 | 2.17 | 0.18 | 90 | 1014.3 |
| 20260507124136 | 38 | 127 | 2.0 | 4.0 | 0.12 | 2.17 | 0.18 | 90 | 1014.2 |
| 20260507123623 | 38 | 95 | 3.0 | 4.0 | 0.16 | 2.17 | 0.18 | 90 | 1014.2 |
| 20260507123130 | 38 | 82 | 3.0 | 4.0 | 0.12 | 2.13 | 0.17 | 90 | 1014.2 |
| 20260507122632 | 38 | 342 | 1.0 | 4.0 | 0.16 | 2.13 | 0.17 | 90 | 1014.2 |
| 20260507122137 | 38 | 348 | 2.0 | 8.0 | 0.20 | 2.13 | 0.17 | 90 | 1014.2 |
| 20260507121640 | 39 | 13 | 4.0 | 10.0 | 0.20 | 2.13 | 0.17 | 92 | 1014.2 |
| 20260507121124 | 39 | 246 | 8.0 | 17.0 | 0.20 | 2.13 | 0.17 | 94 | 1014.1 |
| 20260507120629 | 40 | 338 | 9.0 | 17.0 | 0.24 | 2.13 | 0.17 | 95 | 1014.1 |
| 20260507120132 | 40 | 170 | 4.0 | 8.0 | 0.20 | 2.09 | 0.16 | 95 | 1014.0 |
| 20260507115636 | 39 | 207 | 1.0 | 5.0 | 0.20 | 2.09 | 0.16 | 94 | 1014.2 |
| 20260507115139 | 39 | 125 | 3.0 | 7.0 | 0.20 | 2.09 | 0.16 | 93 | 1014.0 |
| 20260507114628 | 39 | 221 | 2.0 | 8.0 | 0.16 | 2.05 | 0.15 | 93 | 1014.1 |
| 20260507114133 | 39 | 276 | 1.0 | 7.0 | 0.16 | 2.05 | 0.15 | 92 | 1014.1 |
| 20260507113637 | 39 | 101 | 2.0 | 9.0 | 0.12 | 2.01 | 0.14 | 94 | 1014.0 |
| 20260507113142 | 38 | 170 | 5.0 | 9.0 | 0.12 | 2.01 | 0.14 | 94 | 1014.1 |
| 20260507112628 | 38 | 287 | 2.0 | 4.0 | 0.08 | 1.97 | 0.13 | 93 | 1014.1 |
| 20260507112133 | 38 | 309 | 3.0 | 8.0 | 0.04 | 1.93 | 0.12 | 93 | 1014.0 |
| 20260507111638 | 38 | 279 | 5.0 | 9.0 | 0.04 | 1.93 | 0.12 | 93 | 1014.1 |
| 20260507111123 | 39 | 251 | 5.0 | 10.0 | 0.04 | 1.93 | 0.12 | 94 | 1014.1 |
| 20260507110628 | 39 | 266 | 8.0 | 10.0 | 0.00 | 1.89 | 0.11 | 93 | 1014.1 |
| 20260507110131 | 39 | 226 | 2.0 | 7.0 | 0.00 | 1.89 | 0.11 | 93 | 1014.1 |
| 20260507105635 | 39 | 225 | 4.0 | 8.0 | 0.00 | 1.89 | 0.11 | 92 | 1014.1 |
| 20260507105124 | 39 | 196 | 5.0 | 10.0 | 0.00 | 1.89 | 0.11 | 92 | 1014.0 |
| 20260507104627 | 40 | 152 | 4.0 | 11.0 | 0.00 | 1.89 | 0.11 | 93 | 1014.0 |
| 20260507104131 | 40 | 103 | 7.0 | 11.0 | 0.00 | 1.89 | 0.11 | 95 | 1014.1 |
| 20260507103636 | 39 | 180 | 6.0 | 10.0 | 0.00 | 1.89 | 0.11 | 96 | 1014.1 |
| 20260507103140 | 39 | 216 | 6.0 | 10.0 | 0.00 | 1.89 | 0.11 | 95 | 1014.1 |
| 20260507102625 | 39 | 234 | 6.0 | 10.0 | 0.00 | 1.89 | 0.11 | 95 | 1014.1 |
| 20260507102129 | 39 | 167 | 4.0 | 8.0 | 0.00 | 1.89 | 0.11 | 95 | 1014.0 |
| 20260507101633 | 39 | 216 | 5.0 | 7.0 | 0.00 | 1.89 | 0.11 | 95 | 1014.0 |
| 20260507101137 | 39 | 243 | 4.0 | 8.0 | 0.00 | 1.89 | 0.11 | 94 | 1014.0 |
| 20260507100641 | 39 | 209 | 4.0 | 8.0 | 0.00 | 2.52 | 0.11 | 94 | 1014.1 |
| 20260507100130 | 39 | 213 | 4.0 | 8.0 | 0.00 | 2.52 | 0.11 | 94 | 1014.0 |
| 20260507095632 | 39 | 207 | 5.0 | 9.0 | 0.00 | 2.52 | 0.11 | 95 | 1014.0 |
| 20260507095136 | 39 | 200 | 3.0 | 9.0 | 0.00 | 2.52 | 0.11 | 92 | 1013.9 |
| 20260507094640 | 39 | 205 | 3.0 | 9.0 | 0.00 | 2.52 | 0.11 | 92 | 1013.9 |
| 20260507094123 | 39 | 192 | 4.0 | 10.0 | 0.00 | 2.52 | 0.11 | 92 | 1013.9 |
| 20260507093628 | 39 | 109 | 3.0 | 10.0 | 0.00 | 2.52 | 0.11 | 93 | 1013.9 |
| 20260507093131 | 39 | 209 | 5.0 | 10.0 | 0.00 | 2.52 | 0.11 | 92 | 1013.8 |
| 20260507092634 | 40 | 229 | 4.0 | 8.0 | 0.00 | 2.52 | 0.11 | 92 | 1013.8 |
| 20260507092137 | 40 | 200 | 5.0 | 8.0 | 0.00 | 2.52 | 0.11 | 96 | 1013.8 |
| 20260507091641 | 39 | 117 | 1.0 | 5.0 | 0.04 | 2.52 | 0.11 | 96 | 1013.8 |
| 20260507091126 | 38 | 247 | 1.0 | 4.0 | 0.04 | 2.52 | 0.11 | 96 | 1013.8 |
| 20260507090635 | 38 | 232 | 2.0 | 5.0 | 0.04 | 3.03 | 0.11 | 96 | 1013.8 |
| 20260507090140 | 38 | 160 | 3.0 | 6.0 | 0.04 | 3.03 | 0.11 | 95 | 1013.8 |
| 20260507085624 | 38 | 180 | 4.0 | 6.0 | 0.04 | 3.03 | 0.11 | 96 | 1013.7 |
| 20260507085128 | 38 | 209 | 1.0 | 3.0 | 0.04 | 3.03 | 0.11 | 96 | 1013.7 |
| 20260507084634 | 37 | 244 | 1.0 | 7.0 | 0.04 | 3.03 | 0.11 | 95 | 1013.6 |
| 20260507084128 | 38 | 195 | 3.0 | 7.0 | 0.04 | 3.03 | 0.11 | 95 | 1013.6 |
| 20260507083632 | 38 | 158 | 2.0 | 7.0 | 0.04 | 3.03 | 0.11 | 96 | 1013.5 |
| 20260507083135 | 38 | 108 | 2.0 | 7.0 | 0.08 | 3.03 | 0.11 | 95 | 1013.4 |
| 20260507082640 | 37 | 18 | 1.0 | 6.0 | 0.08 | 3.03 | 0.11 | 95 | 1013.4 |
| 20260507082123 | 37 | 170 | 4.0 | 6.0 | 0.08 | 3.03 | 0.11 | 94 | 1013.4 |
| 20260507081628 | 37 | 160 | 4.0 | 6.0 | 0.04 | 2.99 | 0.10 | 94 | 1013.3 |
| 20260507081136 | 38 | 156 | 3.0 | 6.0 | 0.04 | 2.99 | 0.10 | 93 | 1013.2 |
| 20260507080641 | 38 | 177 | 4.0 | 5.0 | 0.04 | 2.99 | 0.10 | 93 | 1013.2 |
| 20260507080124 | 38 | 165 | 2.0 | 5.0 | 0.08 | 2.99 | 0.10 | 93 | 1013.1 |
| 20260507075627 | 38 | 188 | 2.0 | 5.0 | 0.08 | 2.99 | 0.10 | 93 | 1013.0 |
| 20260507075133 | 38 | 143 | 1.0 | 5.0 | 0.08 | 2.99 | 0.10 | 95 | 1013.1 |
| 20260507074635 | 38 | 155 | 1.0 | 6.0 | 0.12 | 2.99 | 0.10 | 94 | 1013.0 |
| 20260507074139 | 37 | 184 | 4.0 | 7.0 | 0.12 | 2.99 | 0.10 | 93 | 1013.0 |
| 20260507073623 | 38 | 236 | 3.0 | 5.0 | 0.16 | 2.99 | 0.10 | 94 | 1013.0 |
| 20260507073128 | 38 | 130 | 1.0 | 4.0 | 0.12 | 2.95 | 0.09 | 94 | 1012.9 |
| 20260507072632 | 38 | 243 | 1.0 | 4.0 | 0.12 | 2.95 | 0.09 | 94 | 1013.0 |
| 20260507072136 | 38 | 163 | 2.0 | 5.0 | 0.12 | 2.95 | 0.09 | 94 | 1012.9 |
| 20260507071625 | 38 | 124 | 1.0 | 5.0 | 0.16 | 2.95 | 0.09 | 92 | 1012.8 |
| 20260507071130 | 38 | 157 | 2.0 | 5.0 | 0.16 | 2.95 | 0.09 | 92 | 1012.8 |
| 20260507070633 | 38 | 246 | 2.0 | 4.0 | 0.12 | 2.95 | 0.08 | 92 | 1012.7 |
| 20260507070137 | 39 | 213 | 1.0 | 3.0 | 0.12 | 2.95 | 0.08 | 92 | 1012.7 |
| 20260507065622 | 39 | 231 | 1.0 | 3.0 | 0.16 | 2.95 | 0.08 | 91 | 1012.6 |
| 20260507065127 | 39 | 202 | 1.0 | 4.0 | 0.16 | 2.95 | 0.08 | 94 | 1012.6 |
| 20260507064632 | 38 | 116 | 1.0 | 3.0 | 0.12 | 2.91 | 0.07 | 93 | 1012.5 |
| 20260507064137 | 38 | 98 | 2.0 | 3.0 | 0.16 | 2.91 | 0.07 | 93 | 1012.5 |
| 20260507063642 | 38 | 135 | 1.0 | 3.0 | 0.12 | 2.87 | 0.06 | 92 | 1012.5 |
| 20260507063126 | 38 | 154 | 1.0 | 6.0 | 0.12 | 2.87 | 0.06 | 92 | 1012.6 |
| 20260507062633 | 38 | 120 | 1.0 | 6.0 | 0.12 | 2.87 | 0.06 | 91 | 1012.5 |
| 20260507062136 | 38 | 180 | 2.0 | 3.0 | 0.12 | 2.87 | 0.06 | 93 | 1012.5 |
| 20260507061641 | 37 | 188 | 2.0 | 3.0 | 0.08 | 2.83 | 0.05 | 90 | 1012.4 |
| 20260507061123 | 37 | 89 | 0.0 | 3.0 | 0.08 | 2.83 | 0.05 | 90 | 1012.4 |
| 20260507060628 | 37 | 90 | 1.0 | 3.0 | 0.08 | 3.23 | 0.05 | 90 | 1012.3 |
| 20260507060132 | 37 | 99 | 2.0 | 3.0 | 0.08 | 3.23 | 0.05 | 89 | 1012.3 |
| 20260507055638 | 38 | 102 | 2.0 | 4.0 | 0.04 | 3.19 | 0.04 | 89 | 1012.3 |
| 20260507055142 | 38 | 74 | 3.0 | 4.0 | 0.04 | 3.19 | 0.04 | 89 | 1012.3 |
| 20260507054627 | 38 | 130 | 1.0 | 3.0 | 0.00 | 3.15 | 0.03 | 92 | 1012.3 |
| 20260507054131 | 37 | 159 | 1.0 | 4.0 | 0.00 | 3.15 | 0.03 | 92 | 1012.3 |
| 20260507053636 | 37 | 186 | 1.0 | 4.0 | 0.00 | 3.15 | 0.03 | 92 | 1012.2 |
| 20260507053126 | 36 | 268 | 0.0 | 2.0 | 0.00 | 3.15 | 0.03 | 90 | 1012.1 |
| 20260507052629 | 36 | 268 | 1.0 | 3.0 | 0.00 | 3.15 | 0.03 | 91 | 1012.1 |
| 20260507052132 | 36 | 268 | 1.0 | 3.0 | 0.00 | 3.15 | 0.03 | 91 | 1012.0 |
| 20260507051636 | 36 | 268 | 1.0 | 2.0 | 0.00 | 3.15 | 0.03 | 91 | 1012.0 |
| 20260507051140 | 36 | 268 | 1.0 | 1.0 | 0.00 | 3.15 | 0.03 | 91 | 1011.9 |
| 20260507050626 | 36 | 268 | 0.0 | 3.0 | 0.00 | 3.23 | 0.03 | 90 | 1011.9 |
| 20260507050130 | 36 | 268 | 1.0 | 4.0 | 0.00 | 3.23 | 0.03 | 90 | 1011.8 |
| 20260507045635 | 36 | 268 | 2.0 | 4.0 | 0.00 | 3.23 | 0.03 | 90 | 1011.8 |
| 20260507045139 | 36 | 261 | 3.0 | 4.0 | 0.00 | 3.23 | 0.03 | 90 | 1011.7 |
| 20260507044624 | 36 | 292 | 1.0 | 3.0 | 0.00 | 3.23 | 0.03 | 90 | 1011.7 |
| 20260507044132 | 36 | 292 | 2.0 | 3.0 | 0.00 | 3.23 | 0.03 | 90 | 1011.6 |
| 20260507043637 | 36 | 284 | 1.0 | 5.0 | 0.00 | 3.23 | 0.03 | 90 | 1011.7 |
| 20260507043141 | 36 | 336 | 2.0 | 10.0 | 0.00 | 3.23 | 0.03 | 90 | 1011.6 |
| 20260507042627 | 36 | 326 | 5.0 | 11.0 | 0.00 | 3.23 | 0.03 | 90 | 1011.7 |
| 20260507042130 | 35 | 333 | 10.0 | 11.0 | 0.00 | 3.23 | 0.03 | 90 | 1011.7 |
| 20260507041635 | 35 | 314 | 6.0 | 9.0 | 0.00 | 3.23 | 0.03 | 90 | 1011.7 |
| 20260507041140 | 35 | 313 | 6.0 | 11.0 | 0.00 | 3.23 | 0.03 | 90 | 1011.6 |
| 20260507040626 | 35 | 296 | 7.0 | 12.0 | 0.00 | 3.27 | 0.03 | 90 | 1011.6 |
| 20260507040129 | 35 | 322 | 9.0 | 12.0 | 0.00 | 3.27 | 0.03 | 90 | 1011.6 |
| 20260507035633 | 35 | 310 | 8.0 | 11.0 | 0.00 | 3.27 | 0.03 | 91 | 1011.6 |
| 20260507035137 | 34 | 321 | 8.0 | 11.0 | 0.00 | 3.27 | 0.03 | 92 | 1011.7 |
| 20260507034625 | 35 | 22 | 3.0 | 5.0 | 0.00 | 3.27 | 0.03 | 93 | 1011.7 |
| 20260507034129 | 35 | 158 | 1.0 | 6.0 | 0.00 | 3.27 | 0.03 | 92 | 1011.7 |
| 20260507033633 | 35 | 205 | 3.0 | 6.0 | 0.00 | 3.27 | 0.03 | 89 | 1011.7 |
| 20260507033137 | 36 | 297 | 0.0 | 6.0 | 0.00 | 3.27 | 0.03 | 90 | 1011.7 |
| 20260507032622 | 35 | 323 | 4.0 | 10.0 | 0.00 | 3.27 | 0.03 | 90 | 1011.6 |
| 20260507032126 | 35 | 349 | 5.0 | 13.0 | 0.00 | 3.27 | 0.03 | 91 | 1011.6 |
| 20260507031630 | 35 | 329 | 8.0 | 13.0 | 0.00 | 3.27 | 0.03 | 92 | 1011.6 |
| 20260507031133 | 34 | 324 | 10.0 | 12.0 | 0.00 | 3.27 | 0.03 | 94 | 1011.6 |
| 20260507030637 | 34 | 22 | 8.0 | 10.0 | 0.04 | 3.31 | 0.03 | 94 | 1011.7 |
| 20260507030142 | 34 | 304 | 3.0 | 8.0 | 0.04 | 3.31 | 0.03 | 95 | 1011.7 |
| 20260507025631 | 34 | 336 | 6.0 | 10.0 | 0.04 | 3.31 | 0.03 | 96 | 1011.7 |
| 20260507025136 | 34 | 328 | 4.0 | 12.0 | 0.04 | 3.31 | 0.03 | 96 | 1011.7 |
| 20260507024641 | 33 | 326 | 9.0 | 12.0 | 0.04 | 3.31 | 0.03 | 95 | 1011.7 |
| 20260507024126 | 34 | 312 | 4.0 | 8.0 | 0.04 | 3.31 | 0.03 | 96 | 1011.6 |
| 20260507023631 | 34 | 246 | 1.0 | 4.0 | 0.04 | 3.31 | 0.03 | 96 | 1011.5 |
| 20260507023136 | 34 | 37 | 2.0 | 4.0 | 0.04 | 3.31 | 0.03 | 95 | 1011.4 |
| 20260507022640 | 34 | 120 | 0.0 | 5.0 | 0.04 | 3.31 | 0.03 | 95 | 1011.6 |
| 20260507022125 | 34 | 121 | 3.0 | 15.0 | 0.04 | 3.31 | 0.03 | 95 | 1011.5 |
| 20260507021629 | 35 | 140 | 3.0 | 15.0 | 0.04 | 3.31 | 0.03 | 95 | 1011.5 |
| 20260507021131 | 35 | 178 | 4.0 | 6.0 | 0.08 | 3.31 | 0.03 | 95 | 1011.4 |
| 20260507020635 | 35 | 19 | 0.0 | 3.0 | 0.04 | 3.31 | 0.02 | 94 | 1011.3 |
| 20260507020123 | 35 | 23 | 2.0 | 3.0 | 0.04 | 3.31 | 0.02 | 94 | 1011.3 |
| 20260507015628 | 35 | 63 | 2.0 | 7.0 | 0.04 | 3.31 | 0.02 | 94 | 1011.3 |
| 20260507015131 | 35 | 132 | 1.0 | 11.0 | 0.04 | 3.31 | 0.02 | 94 | 1011.2 |
| 20260507014635 | 35 | 74 | 5.0 | 11.0 | 0.04 | 3.31 | 0.02 | 94 | 1011.1 |
| 20260507014140 | 36 | 88 | 7.0 | 11.0 | 0.04 | 3.31 | 0.02 | 94 | 1011.0 |
| 20260507013625 | 36 | 259 | 4.0 | 9.0 | 0.04 | 3.31 | 0.02 | 93 | 1010.9 |
| 20260507013128 | 36 | 132 | 5.0 | 7.0 | 0.04 | 3.31 | 0.02 | 93 | 1011.0 |
| 20260507012632 | 36 | 136 | 3.0 | 6.0 | 0.04 | 3.31 | 0.02 | 92 | 1011.0 |
| 20260507012136 | 37 | 76 | 2.0 | 3.0 | 0.04 | 3.31 | 0.02 | 92 | 1011.0 |
| 20260507011640 | 37 | 157 | 1.0 | 3.0 | 0.04 | 3.31 | 0.02 | 92 | 1011.1 |
| 20260507011127 | 37 | 299 | 0.0 | 4.0 | 0.00 | 3.27 | 0.01 | 92 | 1011.1 |
| 20260507010631 | 37 | 305 | 2.0 | 4.0 | 0.00 | 3.54 | 0.01 | 92 | 1011.2 |
| 20260507010135 | 36 | 312 | 2.0 | 3.0 | 0.00 | 3.54 | 0.01 | 92 | 1011.3 |
| 20260507005639 | 36 | 5 | 1.0 | 3.0 | 0.00 | 3.54 | 0.01 | 92 | 1011.3 |
| 20260507005124 | 36 | 19 | 2.0 | 3.0 | 0.00 | 3.54 | 0.01 | 93 | 1011.3 |
| 20260507004628 | 36 | 279 | 2.0 | 4.0 | 0.00 | 3.54 | 0.01 | 93 | 1011.4 |
| 20260507004133 | 36 | 278 | 3.0 | 4.0 | 0.00 | 3.54 | 0.01 | 92 | 1011.5 |
| 20260507003638 | 37 | 310 | 3.0 | 4.0 | 0.00 | 3.54 | 0.01 | 91 | 1011.5 |
| 20260507003123 | 37 | 310 | 2.0 | 3.0 | 0.00 | 3.54 | 0.01 | 91 | 1011.5 |
| 20260507002628 | 37 | 310 | 1.0 | 4.0 | 0.00 | 3.54 | 0.01 | 91 | 1011.6 |
| 20260507002132 | 37 | 47 | 1.0 | 6.0 | 0.04 | 3.54 | 0.01 | 91 | 1011.7 |
| 20260507001640 | 37 | 325 | 4.0 | 8.0 | 0.04 | 3.54 | 0.01 | 91 | 1011.6 |
| 20260507001125 | 36 | 337 | 4.0 | 6.0 | 0.04 | 3.54 | 0.01 | 92 | 1011.6 |
| 20260507000630 | 36 | 266 | 5.0 | 6.0 | 0.04 | 3.74 | 0.01 | 93 | 1011.7 |
| 20260507000135 | 36 | 308 | 4.0 | 4.0 | 0.04 | 3.74 | 0.01 | 92 | 1011.6 |
| 20260506235640 | 36 | 266 | 1.0 | 3.0 | 0.04 | 3.74 | 0.01 | 92 | 1011.7 |
| 20260506235126 | 36 | 266 | 1.0 | 3.0 | 0.04 | 3.74 | 0.01 | 92 | 1011.6 |
| 20260506234630 | 36 | 266 | 1.0 | 3.0 | 0.04 | 3.74 | 0.01 | 92 | 1011.6 |
| 20260506234135 | 36 | 266 | 1.0 | 3.0 | 0.04 | 3.74 | 0.01 | 92 | 1011.7 |
| 20260506233640 | 36 | 266 | 2.0 | 3.0 | 0.04 | 3.74 | 0.01 | 92 | 1011.7 |
| 20260506233125 | 37 | 292 | 1.0 | 3.0 | 0.04 | 3.74 | 0.01 | 91 | 1011.6 |
| 20260506232633 | 37 | 300 | 2.0 | 5.0 | 0.04 | 3.74 | 0.01 | 91 | 1011.6 |
| 20260506232138 | 37 | 241 | 2.0 | 7.0 | 0.00 | 3.70 | 0.00 | 90 | 1011.6 |
| 20260506231642 | 37 | 264 | 3.0 | 6.0 | 0.00 | 3.70 | 0.00 | 90 | 1011.6 |
| 20260506231125 | 37 | 269 | 2.0 | 5.0 | 0.00 | 3.70 | 0.00 | 90 | 1011.6 |
| 20260506230629 | 37 | 347 | 1.0 | 5.0 | 0.00 | 4.02 | 0.00 | 89 | 1011.5 |
| 20260506230134 | 37 | 224 | 2.0 | 5.0 | 0.00 | 4.02 | 0.00 | 89 | 1011.4 |
| 20260506225638 | 37 | 224 | 4.0 | 5.0 | 0.04 | 4.02 | 0.00 | 88 | 1011.4 |
| 20260506225125 | 37 | 191 | 3.0 | 6.0 | 0.04 | 4.02 | 0.00 | 88 | 1011.4 |
| 20260506224629 | 37 | 298 | 2.0 | 6.0 | 0.04 | 4.02 | 0.00 | 89 | 1011.6 |
| 20260506224133 | 37 | 283 | 4.0 | 6.0 | 0.04 | 4.02 | 0.00 | 89 | 1011.6 |
| 20260506223623 | 37 | 15 | 4.0 | 7.0 | 0.04 | 4.02 | 0.00 | 89 | 1011.5 |
| 20260506223128 | 37 | 221 | 2.0 | 4.0 | 0.04 | 4.02 | 0.00 | 89 | 1011.6 |
| 20260506222632 | 37 | 69 | 2.0 | 5.0 | 0.08 | 4.02 | 0.00 | 89 | 1011.6 |
| 20260506222136 | 37 | 328 | 2.0 | 5.0 | 0.08 | 4.02 | 0.00 | 90 | 1011.7 |
| 20260506221641 | 36 | 338 | 3.0 | 6.0 | 0.08 | 4.02 | 0.00 | 90 | 1011.7 |
| 20260506221126 | 36 | 355 | 4.0 | 6.0 | 0.08 | 4.02 | 0.00 | 91 | 1011.7 |
| 20260506220630 | 36 | 10 | 2.0 | 5.0 | 0.08 | 4.29 | 1.02 | 91 | 1011.7 |
| 20260506220134 | 36 | 26 | 4.0 | 7.0 | 0.12 | 4.29 | 1.02 | 92 | 1011.7 |
| 20260506215637 | 36 | 59 | 3.0 | 7.0 | 0.08 | 4.25 | 1.01 | 93 | 1011.7 |
| 20260506215142 | 36 | 46 | 2.0 | 7.0 | 0.08 | 4.25 | 1.01 | 94 | 1011.6 |
| 20260506214625 | 36 | 110 | 3.0 | 7.0 | 0.12 | 4.25 | 1.01 | 93 | 1011.7 |
| 20260506214134 | 36 | 90 | 4.0 | 7.0 | 0.12 | 4.25 | 1.01 | 93 | 1011.6 |
| 20260506213639 | 36 | 155 | 2.0 | 6.0 | 0.12 | 4.25 | 1.01 | 92 | 1011.7 |
| 20260506213125 | 36 | 230 | 2.0 | 7.0 | 0.12 | 4.25 | 1.01 | 92 | 1011.7 |
| 20260506212629 | 36 | 256 | 1.0 | 11.0 | 0.08 | 4.21 | 1.00 | 92 | 1011.8 |
| 20260506212133 | 36 | 257 | 5.0 | 13.0 | 0.12 | 4.21 | 1.00 | 92 | 1011.7 |
| 20260506211637 | 36 | 245 | 10.0 | 13.0 | 0.12 | 4.21 | 1.00 | 91 | 1011.7 |
| 20260506211142 | 37 | 279 | 4.0 | 11.0 | 0.12 | 4.21 | 1.00 | 91 | 1011.7 |
| 20260506210627 | 37 | 260 | 9.0 | 12.0 | 0.16 | 4.29 | 1.00 | 91 | 1011.6 |
| 20260506210131 | 37 | 259 | 8.0 | 12.0 | 0.12 | 4.25 | 0.99 | 92 | 1011.6 |
| 20260506205634 | 37 | 309 | 6.0 | 12.0 | 0.12 | 4.25 | 0.99 | 92 | 1011.6 |
| 20260506205123 | 37 | 298 | 8.0 | 12.0 | 0.16 | 4.25 | 0.99 | 94 | 1011.7 |
| 20260506204627 | 36 | 277 | 3.0 | 7.0 | 0.12 | 4.21 | 0.98 | 96 | 1011.7 |
| 20260506204132 | 36 | 310 | 4.0 | 9.0 | 0.16 | 4.21 | 0.98 | 96 | 1011.7 |
| 20260506203636 | 35 | 343 | 6.0 | 12.0 | 0.16 | 4.21 | 0.98 | 96 | 1011.6 |
| 20260506203141 | 35 | 9 | 8.0 | 13.0 | 0.20 | 4.21 | 0.98 | 96 | 1011.7 |
| 20260506202626 | 35 | 330 | 8.0 | 15.0 | 0.16 | 4.17 | 0.97 | 95 | 1011.7 |
| 20260506202130 | 35 | 333 | 12.0 | 15.0 | 0.16 | 4.17 | 0.97 | 94 | 1011.6 |
| 20260506201635 | 36 | 327 | 4.0 | 8.0 | 0.20 | 4.17 | 0.97 | 95 | 1011.6 |
| 20260506201139 | 36 | 260 | 6.0 | 10.0 | 0.20 | 4.17 | 0.97 | 95 | 1011.6 |
| 20260506200625 | 36 | 229 | 7.0 | 10.0 | 0.16 | 4.21 | 0.96 | 95 | 1011.5 |
| 20260506200130 | 36 | 246 | 3.0 | 5.0 | 0.16 | 4.21 | 0.96 | 95 | 1011.5 |
| 20260506195638 | 36 | 167 | 2.0 | 7.0 | 0.20 | 4.21 | 0.96 | 95 | 1011.4 |
| 20260506195123 | 37 | 155 | 4.0 | 9.0 | 0.16 | 4.17 | 0.95 | 94 | 1011.3 |
| 20260506194628 | 36 | 115 | 5.0 | 9.0 | 0.20 | 4.17 | 0.95 | 93 | 1011.2 |
| 20260506194131 | 36 | 110 | 6.0 | 12.0 | 0.16 | 4.13 | 0.94 | 92 | 1011.2 |
| 20260506193634 | 36 | 117 | 6.0 | 12.0 | 0.16 | 4.13 | 0.94 | 91 | 1011.2 |
| 20260506193138 | 37 | 122 | 3.0 | 10.0 | 0.16 | 4.09 | 0.93 | 89 | 1011.1 |
| 20260506192641 | 37 | 69 | 3.0 | 5.0 | 0.16 | 4.09 | 0.93 | 89 | 1010.9 |
| 20260506192124 | 38 | 163 | 2.0 | 6.0 | 0.16 | 4.09 | 0.93 | 88 | 1010.9 |
| 20260506191629 | 38 | 173 | 2.0 | 6.0 | 0.12 | 4.06 | 0.92 | 88 | 1010.8 |
| 20260506191133 | 38 | 281 | 2.0 | 6.0 | 0.16 | 4.06 | 0.92 | 88 | 1010.7 |
| 20260506190638 | 38 | 339 | 3.0 | 6.0 | 0.16 | 4.17 | 0.92 | 88 | 1010.7 |
| 20260506190127 | 38 | 360 | 3.0 | 9.0 | 0.20 | 4.17 | 0.92 | 88 | 1010.7 |
| 20260506185632 | 37 | 297 | 5.0 | 9.0 | 0.20 | 4.13 | 0.91 | 89 | 1010.6 |
| 20260506185136 | 37 | 360 | 4.0 | 6.0 | 0.24 | 4.13 | 0.91 | 90 | 1010.4 |
| 20260506184640 | 37 | 67 | 4.0 | 6.0 | 0.28 | 4.09 | 0.90 | 89 | 1010.6 |
| 20260506184125 | 37 | 15 | 1.0 | 9.0 | 0.31 | 4.09 | 0.90 | 90 | 1010.4 |
| 20260506183629 | 37 | 337 | 6.0 | 9.0 | 0.35 | 4.09 | 0.90 | 90 | 1010.4 |
| 20260506183134 | 36 | 333 | 2.0 | 4.0 | 0.31 | 4.06 | 0.89 | 90 | 1010.4 |
| 20260506182639 | 36 | 250 | 1.0 | 2.0 | 0.35 | 4.06 | 0.89 | 91 | 1010.5 |
| 20260506182124 | 36 | 250 | 1.0 | 5.0 | 0.35 | 4.06 | 0.89 | 91 | 1010.5 |